Year,Month,Day,Hour,Minute,Value (Times are PST for temperature in C)
2013,07,22,00,00,17.40
2013,07,22,00,01,17.40
2013,07,22,00,02,17.40
2013,07,22,00,03,17.40
2013,07,22,00,04,17.40
2013,07,22,00,05,17.30
2013,07,22,00,06,17.30
2013,07,22,00,07,17.30
2013,07,22,00,08,17.20
2013,07,22,00,09,17.20
2013,07,22,00,10,17.20
2013,07,22,00,11,17.20
2013,07,22,00,12,17.10
2013,07,22,00,13,17.10
2013,07,22,00,14,17.00
2013,07,22,00,15,17.00
2013,07,22,00,16,17.00
2013,07,22,00,17,16.90
2013,07,22,00,18,16.90
2013,07,22,00,19,16.90
2013,07,22,00,20,16.90
2013,07,22,00,21,16.80
2013,07,22,00,22,16.80
2013,07,22,00,23,16.80
2013,07,22,00,24,16.80
2013,07,22,00,25,16.80
2013,07,22,00,26,16.70
2013,07,22,00,27,16.70
2013,07,22,00,28,16.70
2013,07,22,00,29,16.70
2013,07,22,00,30,16.60
2013,07,22,00,31,16.60
2013,07,22,00,32,16.60
2013,07,22,00,33,16.60
2013,07,22,00,34,16.60
2013,07,22,00,35,16.50
2013,07,22,00,36,16.50
2013,07,22,00,37,16.50
2013,07,22,00,38,16.50
2013,07,22,00,39,16.40
2013,07,22,00,40,16.40
2013,07,22,00,41,16.40
2013,07,22,00,42,16.40
2013,07,22,00,43,16.40
2013,07,22,00,44,16.40
2013,07,22,00,45,16.30
2013,07,22,00,46,16.30
2013,07,22,00,47,16.30
2013,07,22,00,48,16.30
2013,07,22,00,49,16.30
2013,07,22,00,50,16.20
2013,07,22,00,51,16.20
2013,07,22,00,52,16.20
2013,07,22,00,53,16.20
2013,07,22,00,54,16.20
2013,07,22,00,55,16.20
2013,07,22,00,56,16.20
2013,07,22,00,57,16.30
2013,07,22,00,58,16.30
2013,07,22,00,59,16.30
2013,07,22,01,00,16.40
2013,07,22,01,01,16.40
2013,07,22,01,02,16.40
2013,07,22,01,03,16.40
2013,07,22,01,04,16.40
2013,07,22,01,05,16.40
2013,07,22,01,06,16.40
2013,07,22,01,07,16.40
2013,07,22,01,08,16.40
2013,07,22,01,09,16.40
2013,07,22,01,10,16.40
2013,07,22,01,11,16.40
2013,07,22,01,12,16.40
2013,07,22,01,13,16.40
2013,07,22,01,14,16.30
2013,07,22,01,15,16.30
2013,07,22,01,16,16.30
2013,07,22,01,17,16.30
2013,07,22,01,18,16.30
2013,07,22,01,19,16.30
2013,07,22,01,20,16.30
2013,07,22,01,21,16.30
2013,07,22,01,22,16.30
2013,07,22,01,23,16.30
2013,07,22,01,24,16.20
2013,07,22,01,25,16.20
2013,07,22,01,26,16.20
2013,07,22,01,27,16.20
2013,07,22,01,28,16.20
2013,07,22,01,29,16.20
2013,07,22,01,30,16.20
2013,07,22,01,31,16.20
2013,07,22,01,32,16.20
2013,07,22,01,33,16.20
2013,07,22,01,34,16.20
2013,07,22,01,35,16.20
2013,07,22,01,36,16.20
2013,07,22,01,37,16.20
2013,07,22,01,38,16.20
2013,07,22,01,39,16.20
2013,07,22,01,40,16.20
2013,07,22,01,41,16.20
2013,07,22,01,42,16.20
2013,07,22,01,43,16.20
2013,07,22,01,44,16.20
2013,07,22,01,45,16.20
2013,07,22,01,46,16.20
2013,07,22,01,47,16.20
2013,07,22,01,48,16.20
2013,07,22,01,49,16.20
2013,07,22,01,50,16.10
2013,07,22,01,51,16.10
2013,07,22,01,52,16.10
2013,07,22,01,53,16.10
2013,07,22,01,54,16.10
2013,07,22,01,55,16.10
2013,07,22,01,56,16.10
2013,07,22,01,57,16.10
2013,07,22,01,58,16.10
2013,07,22,01,59,16.10
2013,07,22,02,00,16.10
2013,07,22,02,01,16.00
2013,07,22,02,02,16.00
2013,07,22,02,03,16.00
2013,07,22,02,04,15.90
2013,07,22,02,05,15.90
2013,07,22,02,06,15.90
2013,07,22,02,07,15.90
2013,07,22,02,08,15.80
2013,07,22,02,09,15.80
2013,07,22,02,10,15.80
2013,07,22,02,11,15.80
2013,07,22,02,12,15.80
2013,07,22,02,13,15.80
2013,07,22,02,14,15.70
2013,07,22,02,15,15.70
2013,07,22,02,16,15.70
2013,07,22,02,17,15.70
2013,07,22,02,18,15.70
2013,07,22,02,19,15.70
2013,07,22,02,20,15.70
2013,07,22,02,21,15.70
2013,07,22,02,22,15.70
2013,07,22,02,23,15.70
2013,07,22,02,24,15.70
2013,07,22,02,25,15.70
2013,07,22,02,26,15.70
2013,07,22,02,27,15.70
2013,07,22,02,28,15.60
2013,07,22,02,29,15.60
2013,07,22,02,30,15.60
2013,07,22,02,31,15.60
2013,07,22,02,32,15.60
2013,07,22,02,33,15.60
2013,07,22,02,34,15.60
2013,07,22,02,35,15.50
2013,07,22,02,36,15.50
2013,07,22,02,37,15.40
2013,07,22,02,38,15.40
2013,07,22,02,39,15.40
2013,07,22,02,40,15.40
2013,07,22,02,41,15.30
2013,07,22,02,42,15.30
2013,07,22,02,43,15.30
2013,07,22,02,44,15.30
2013,07,22,02,45,15.20
2013,07,22,02,46,15.20
2013,07,22,02,47,15.20
2013,07,22,02,48,15.10
2013,07,22,02,49,15.10
2013,07,22,02,50,15.00
2013,07,22,02,51,15.00
2013,07,22,02,52,15.00
2013,07,22,02,53,14.90
2013,07,22,02,54,14.90
2013,07,22,02,55,14.90
2013,07,22,02,56,14.90
2013,07,22,02,57,14.80
2013,07,22,02,58,14.80
2013,07,22,02,59,14.80
2013,07,22,03,00,14.80
2013,07,22,03,01,14.80
2013,07,22,03,02,14.70
2013,07,22,03,03,14.70
2013,07,22,03,04,14.70
2013,07,22,03,05,14.70
2013,07,22,03,06,14.70
2013,07,22,03,07,14.70
2013,07,22,03,08,14.60
2013,07,22,03,09,14.60
2013,07,22,03,10,14.60
2013,07,22,03,11,14.60
2013,07,22,03,12,14.60
2013,07,22,03,13,14.50
2013,07,22,03,14,14.50
2013,07,22,03,15,14.50
2013,07,22,03,16,14.50
2013,07,22,03,17,14.50
2013,07,22,03,18,14.40
2013,07,22,03,19,14.40
2013,07,22,03,20,14.40
2013,07,22,03,21,14.40
2013,07,22,03,22,14.40
2013,07,22,03,23,14.30
2013,07,22,03,24,14.30
2013,07,22,03,25,14.30
2013,07,22,03,26,14.20
2013,07,22,03,27,14.20
2013,07,22,03,28,14.10
2013,07,22,03,29,14.10
2013,07,22,03,30,14.10
2013,07,22,03,31,14.00
2013,07,22,03,32,14.00
2013,07,22,03,33,14.00
2013,07,22,03,34,14.00
2013,07,22,03,35,13.90
2013,07,22,03,36,13.90
2013,07,22,03,37,13.90
2013,07,22,03,38,13.90
2013,07,22,03,39,13.90
2013,07,22,03,40,13.90
2013,07,22,03,41,14.00
2013,07,22,03,42,14.00
2013,07,22,03,43,14.00
2013,07,22,03,44,14.00
2013,07,22,03,45,14.00
2013,07,22,03,46,14.10
2013,07,22,03,47,14.10
2013,07,22,03,48,14.10
2013,07,22,03,49,14.10
2013,07,22,03,50,14.10
2013,07,22,03,51,14.10
2013,07,22,03,52,14.10
2013,07,22,03,53,14.10
2013,07,22,03,54,14.10
2013,07,22,03,55,14.00
2013,07,22,03,56,14.00
2013,07,22,03,57,14.00
2013,07,22,03,58,14.00
2013,07,22,03,59,14.00
2013,07,22,04,00,13.90
2013,07,22,04,01,13.90
2013,07,22,04,02,13.90
2013,07,22,04,03,13.90
2013,07,22,04,04,13.90
2013,07,22,04,05,13.90
2013,07,22,04,06,13.90
2013,07,22,04,07,13.90
2013,07,22,04,08,13.80
2013,07,22,04,09,13.80
2013,07,22,04,10,13.80
2013,07,22,04,11,13.80
2013,07,22,04,12,13.80
2013,07,22,04,13,13.80
2013,07,22,04,14,13.80
2013,07,22,04,15,13.80
2013,07,22,04,16,13.80
2013,07,22,04,17,13.80
2013,07,22,04,18,13.80
2013,07,22,04,19,13.80
2013,07,22,04,20,13.80
2013,07,22,04,21,13.70
2013,07,22,04,22,13.70
2013,07,22,04,23,13.70
2013,07,22,04,24,13.70
2013,07,22,04,25,13.70
2013,07,22,04,26,13.70
2013,07,22,04,27,13.70
2013,07,22,04,28,13.70
2013,07,22,04,29,13.60
2013,07,22,04,30,13.60
2013,07,22,04,31,13.60
2013,07,22,04,32,13.60
2013,07,22,04,33,13.60
2013,07,22,04,34,13.60
2013,07,22,04,35,13.60
2013,07,22,04,36,13.60
2013,07,22,04,37,13.50
2013,07,22,04,38,13.50
2013,07,22,04,39,13.50
2013,07,22,04,40,13.50
2013,07,22,04,41,13.50
2013,07,22,04,42,13.40
2013,07,22,04,43,13.40
2013,07,22,04,44,13.40
2013,07,22,04,45,13.40
2013,07,22,04,46,13.30
2013,07,22,04,47,13.30
2013,07,22,04,48,13.30
2013,07,22,04,49,13.30
2013,07,22,04,50,13.30
2013,07,22,04,51,13.30
2013,07,22,04,52,13.30
2013,07,22,04,53,13.30
2013,07,22,04,54,13.30
2013,07,22,04,55,13.30
2013,07,22,04,56,13.30
2013,07,22,04,57,13.30
2013,07,22,04,58,13.30
2013,07,22,04,59,13.30
2013,07,22,05,00,13.30
2013,07,22,05,01,13.30
2013,07,22,05,02,13.30
2013,07,22,05,03,13.30
2013,07,22,05,04,13.30
2013,07,22,05,05,13.30
2013,07,22,05,06,13.30
2013,07,22,05,07,13.30
2013,07,22,05,08,13.30
2013,07,22,05,09,13.30
2013,07,22,05,10,13.30
2013,07,22,05,11,13.30
2013,07,22,05,12,13.30
2013,07,22,05,13,13.30
2013,07,22,05,14,13.30
2013,07,22,05,15,13.30
2013,07,22,05,16,13.30
2013,07,22,05,17,13.30
2013,07,22,05,18,13.30
2013,07,22,05,19,13.30
2013,07,22,05,20,13.20
2013,07,22,05,21,13.20
2013,07,22,05,22,13.20
2013,07,22,05,23,13.20
2013,07,22,05,24,13.20
2013,07,22,05,25,13.20
2013,07,22,05,26,13.20
2013,07,22,05,27,13.20
2013,07,22,05,28,13.20
2013,07,22,05,29,13.20
2013,07,22,05,30,13.20
2013,07,22,05,31,13.20
2013,07,22,05,32,13.20
2013,07,22,05,33,13.20
2013,07,22,05,34,13.10
2013,07,22,05,35,13.10
2013,07,22,05,36,13.10
2013,07,22,05,37,13.10
2013,07,22,05,38,13.10
2013,07,22,05,39,13.10
2013,07,22,05,40,13.00
2013,07,22,05,41,13.00
2013,07,22,05,42,13.00
2013,07,22,05,43,13.00
2013,07,22,05,44,13.00
2013,07,22,05,45,13.00
2013,07,22,05,46,13.00
2013,07,22,05,47,12.90
2013,07,22,05,48,12.90
2013,07,22,05,49,12.90
2013,07,22,05,50,12.90
2013,07,22,05,51,12.90
2013,07,22,05,52,12.90
2013,07,22,05,53,12.90
2013,07,22,05,54,12.90
2013,07,22,05,55,12.90
2013,07,22,05,56,12.90
2013,07,22,05,57,12.90
2013,07,22,05,58,12.90
2013,07,22,05,59,12.90
2013,07,22,06,00,12.90
2013,07,22,06,01,12.90
2013,07,22,06,02,13.00
2013,07,22,06,03,13.00
2013,07,22,06,04,13.00
2013,07,22,06,05,13.10
2013,07,22,06,06,13.10
2013,07,22,06,07,13.10
2013,07,22,06,08,13.10
2013,07,22,06,09,13.10
2013,07,22,06,10,13.10
2013,07,22,06,11,13.20
2013,07,22,06,12,13.20
2013,07,22,06,13,13.20
2013,07,22,06,14,13.20
2013,07,22,06,15,13.20
2013,07,22,06,16,13.20
2013,07,22,06,17,13.20
2013,07,22,06,18,13.30
2013,07,22,06,19,13.30
2013,07,22,06,20,13.30
2013,07,22,06,21,13.40
2013,07,22,06,22,13.40
2013,07,22,06,23,13.50
2013,07,22,06,24,13.50
2013,07,22,06,25,13.60
2013,07,22,06,26,13.60
2013,07,22,06,27,13.70
2013,07,22,06,28,13.70
2013,07,22,06,29,13.70
2013,07,22,06,30,13.80
2013,07,22,06,31,13.80
2013,07,22,06,32,13.80
2013,07,22,06,33,13.80
2013,07,22,06,34,13.80
2013,07,22,06,35,13.90
2013,07,22,06,36,13.90
2013,07,22,06,37,13.90
2013,07,22,06,38,14.00
2013,07,22,06,39,14.00
2013,07,22,06,40,14.10
2013,07,22,06,41,14.10
2013,07,22,06,42,14.10
2013,07,22,06,43,14.10
2013,07,22,06,44,14.10
2013,07,22,06,45,14.10
2013,07,22,06,46,14.20
2013,07,22,06,47,14.20
2013,07,22,06,48,14.20
2013,07,22,06,49,14.30
2013,07,22,06,50,14.30
2013,07,22,06,51,14.30
2013,07,22,06,52,14.40
2013,07,22,06,53,14.40
2013,07,22,06,54,14.40
2013,07,22,06,55,14.50
2013,07,22,06,56,14.50
2013,07,22,06,57,14.60
2013,07,22,06,58,14.60
2013,07,22,06,59,14.70
2013,07,22,07,00,14.70
2013,07,22,07,01,14.70
2013,07,22,07,02,14.70
2013,07,22,07,03,14.80
2013,07,22,07,04,14.80
2013,07,22,07,05,14.80
2013,07,22,07,06,14.80
2013,07,22,07,07,14.80
2013,07,22,07,08,14.90
2013,07,22,07,09,14.90
2013,07,22,07,10,14.90
2013,07,22,07,11,14.90
2013,07,22,07,12,15.00
2013,07,22,07,13,15.00
2013,07,22,07,14,15.10
2013,07,22,07,15,15.10
2013,07,22,07,16,15.20
2013,07,22,07,17,15.20
2013,07,22,07,18,15.30
2013,07,22,07,19,15.30
2013,07,22,07,20,15.30
2013,07,22,07,21,15.30
2013,07,22,07,22,15.30
2013,07,22,07,23,15.40
2013,07,22,07,24,15.30
2013,07,22,07,25,15.40
2013,07,22,07,26,15.40
2013,07,22,07,27,15.40
2013,07,22,07,28,15.50
2013,07,22,07,29,15.50
2013,07,22,07,30,15.60
2013,07,22,07,31,15.60
2013,07,22,07,32,15.60
2013,07,22,07,33,15.70
2013,07,22,07,34,15.70
2013,07,22,07,35,15.70
2013,07,22,07,36,15.80
2013,07,22,07,37,15.80
2013,07,22,07,38,15.90
2013,07,22,07,39,15.90
2013,07,22,07,40,15.90
2013,07,22,07,41,16.00
2013,07,22,07,42,16.00
2013,07,22,07,43,16.00
2013,07,22,07,44,16.10
2013,07,22,07,45,16.20
2013,07,22,07,46,16.20
2013,07,22,07,47,16.30
2013,07,22,07,48,16.30
2013,07,22,07,49,16.30
2013,07,22,07,50,16.30
2013,07,22,07,51,16.40
2013,07,22,07,52,16.40
2013,07,22,07,53,16.50
2013,07,22,07,54,16.50
2013,07,22,07,55,16.60
2013,07,22,07,56,16.60
2013,07,22,07,57,16.60
2013,07,22,07,58,16.70
2013,07,22,07,59,16.70
2013,07,22,08,00,16.70
2013,07,22,08,01,16.80
2013,07,22,08,02,16.80
2013,07,22,08,03,16.80
2013,07,22,08,04,16.90
2013,07,22,08,05,16.90
2013,07,22,08,06,16.90
2013,07,22,08,07,16.90
2013,07,22,08,08,16.90
2013,07,22,08,09,17.00
2013,07,22,08,10,17.00
2013,07,22,08,11,17.00
2013,07,22,08,12,17.00
2013,07,22,08,13,17.00
2013,07,22,08,14,17.00
2013,07,22,08,15,17.00
2013,07,22,08,16,17.00
2013,07,22,08,17,17.00
2013,07,22,08,18,17.00
2013,07,22,08,19,17.00
2013,07,22,08,20,16.90
2013,07,22,08,21,16.90
2013,07,22,08,22,16.80
2013,07,22,08,23,16.80
2013,07,22,08,24,16.80
2013,07,22,08,25,16.80
2013,07,22,08,26,16.80
2013,07,22,08,27,16.90
2013,07,22,08,28,16.90
2013,07,22,08,29,17.00
2013,07,22,08,30,17.00
2013,07,22,08,31,17.10
2013,07,22,08,32,17.10
2013,07,22,08,33,17.20
2013,07,22,08,34,17.20
2013,07,22,08,35,17.20
2013,07,22,08,36,17.30
2013,07,22,08,37,17.40
2013,07,22,08,38,17.40
2013,07,22,08,39,17.40
2013,07,22,08,40,17.40
2013,07,22,08,41,17.40
2013,07,22,08,42,17.50
2013,07,22,08,43,17.50
2013,07,22,08,44,17.50
2013,07,22,08,45,17.60
2013,07,22,08,46,17.60
2013,07,22,08,47,17.70
2013,07,22,08,48,17.80
2013,07,22,08,49,17.80
2013,07,22,08,50,17.90
2013,07,22,08,51,17.90
2013,07,22,08,52,18.00
2013,07,22,08,53,18.00
2013,07,22,08,54,18.00
2013,07,22,08,55,18.10
2013,07,22,08,56,18.10
2013,07,22,08,57,18.20
2013,07,22,08,58,18.20
2013,07,22,08,59,18.20
2013,07,22,09,00,18.10
2013,07,22,09,01,18.10
2013,07,22,09,02,18.10
2013,07,22,09,03,18.10
2013,07,22,09,04,18.10
2013,07,22,09,05,18.10
2013,07,22,09,06,18.10
2013,07,22,09,07,18.10
2013,07,22,09,08,18.20
2013,07,22,09,09,18.20
2013,07,22,09,10,18.20
2013,07,22,09,11,18.20
2013,07,22,09,12,18.30
2013,07,22,09,13,18.30
2013,07,22,09,14,18.30
2013,07,22,09,15,18.30
2013,07,22,09,16,18.30
2013,07,22,09,17,18.40
2013,07,22,09,18,18.40
2013,07,22,09,19,18.40
2013,07,22,09,20,18.40
2013,07,22,09,21,18.40
2013,07,22,09,22,18.40
2013,07,22,09,23,18.40
2013,07,22,09,24,18.40
2013,07,22,09,25,18.50
2013,07,22,09,26,18.50
2013,07,22,09,27,18.50
2013,07,22,09,28,18.60
2013,07,22,09,29,18.60
2013,07,22,09,30,18.70
2013,07,22,09,31,18.80
2013,07,22,09,32,18.80
2013,07,22,09,33,18.80
2013,07,22,09,34,18.90
2013,07,22,09,35,18.90
2013,07,22,09,36,18.90
2013,07,22,09,37,19.00
2013,07,22,09,38,19.00
2013,07,22,09,39,19.10
2013,07,22,09,40,19.10
2013,07,22,09,41,19.20
2013,07,22,09,42,19.20
2013,07,22,09,43,19.30
2013,07,22,09,44,19.30
2013,07,22,09,45,19.30
2013,07,22,09,46,19.40
2013,07,22,09,47,19.40
2013,07,22,09,48,19.40
2013,07,22,09,49,19.40
2013,07,22,09,50,19.40
2013,07,22,09,51,19.40
2013,07,22,09,52,19.50
2013,07,22,09,53,19.50
2013,07,22,09,54,19.60
2013,07,22,09,55,19.60
2013,07,22,09,56,19.60
2013,07,22,09,57,19.70
2013,07,22,09,58,19.70
2013,07,22,09,59,19.80
2013,07,22,10,00,19.90
2013,07,22,10,01,20.00
2013,07,22,10,02,20.00
2013,07,22,10,03,20.00
2013,07,22,10,04,20.10
2013,07,22,10,05,20.10
2013,07,22,10,06,20.20
2013,07,22,10,07,20.20
2013,07,22,10,08,20.20
2013,07,22,10,09,20.20
2013,07,22,10,10,20.20
2013,07,22,10,11,20.20
2013,07,22,10,12,20.20
2013,07,22,10,13,20.20
2013,07,22,10,14,20.20
2013,07,22,10,15,20.20
2013,07,22,10,16,20.20
2013,07,22,10,17,20.20
2013,07,22,10,18,20.20
2013,07,22,10,19,20.20
2013,07,22,10,20,20.20
2013,07,22,10,21,20.30
2013,07,22,10,22,20.30
2013,07,22,10,23,20.30
2013,07,22,10,24,20.40
2013,07,22,10,25,20.50
2013,07,22,10,26,20.60
2013,07,22,10,27,20.60
2013,07,22,10,28,20.60
2013,07,22,10,29,20.70
2013,07,22,10,30,20.70
2013,07,22,10,31,20.70
2013,07,22,10,32,20.70
2013,07,22,10,33,20.70
2013,07,22,10,34,20.70
2013,07,22,10,35,20.70
2013,07,22,10,36,20.70
2013,07,22,10,37,20.70
2013,07,22,10,38,20.60
2013,07,22,10,39,20.60
2013,07,22,10,40,20.60
2013,07,22,10,41,20.60
2013,07,22,10,42,20.60
2013,07,22,10,43,20.60
2013,07,22,10,44,20.70
2013,07,22,10,45,20.80
2013,07,22,10,46,20.80
2013,07,22,10,47,20.80
2013,07,22,10,48,20.80
2013,07,22,10,49,20.80
2013,07,22,10,50,20.80
2013,07,22,10,51,20.90
2013,07,22,10,52,20.90
2013,07,22,10,53,21.00
2013,07,22,10,54,21.00
2013,07,22,10,55,21.10
2013,07,22,10,56,21.20
2013,07,22,10,57,21.20
2013,07,22,10,58,21.30
2013,07,22,10,59,21.30
2013,07,22,11,00,21.30
2013,07,22,11,01,21.30
2013,07,22,11,02,21.30
2013,07,22,11,03,21.30
2013,07,22,11,04,21.30
2013,07,22,11,05,21.30
2013,07,22,11,06,21.30
2013,07,22,11,07,21.30
2013,07,22,11,08,21.20
2013,07,22,11,09,21.20
2013,07,22,11,10,21.10
2013,07,22,11,11,21.10
2013,07,22,11,12,21.10
2013,07,22,11,13,21.10
2013,07,22,11,14,21.10
2013,07,22,11,15,21.10
2013,07,22,11,16,21.10
2013,07,22,11,17,21.20
2013,07,22,11,18,21.10
2013,07,22,11,19,21.10
2013,07,22,11,20,21.10
2013,07,22,11,21,21.20
2013,07,22,11,22,21.30
2013,07,22,11,23,21.30
2013,07,22,11,24,21.30
2013,07,22,11,25,21.30
2013,07,22,11,26,21.20
2013,07,22,11,27,21.10
2013,07,22,11,28,21.10
2013,07,22,11,29,21.10
2013,07,22,11,30,21.20
2013,07,22,11,31,21.20
2013,07,22,11,32,21.20
2013,07,22,11,33,21.20
2013,07,22,11,34,21.30
2013,07,22,11,35,21.40
2013,07,22,11,36,21.50
2013,07,22,11,37,21.50
2013,07,22,11,38,21.40
2013,07,22,11,39,21.40
2013,07,22,11,40,21.40
2013,07,22,11,41,21.50
2013,07,22,11,42,21.50
2013,07,22,11,43,21.60
2013,07,22,11,44,21.70
2013,07,22,11,45,21.70
2013,07,22,11,46,21.80
2013,07,22,11,47,21.90
2013,07,22,11,48,21.90
2013,07,22,11,49,22.00
2013,07,22,11,50,22.00
2013,07,22,11,51,22.10
2013,07,22,11,52,22.10
2013,07,22,11,53,22.10
2013,07,22,11,54,22.10
2013,07,22,11,55,22.10
2013,07,22,11,56,22.20
2013,07,22,11,57,22.20
2013,07,22,11,58,22.10
2013,07,22,11,59,22.10
2013,07,22,12,00,22.10
2013,07,22,12,01,22.10
2013,07,22,12,02,22.10
2013,07,22,12,03,22.00
2013,07,22,12,04,22.00
2013,07,22,12,05,22.00
2013,07,22,12,06,22.00
2013,07,22,12,07,22.00
2013,07,22,12,08,22.00
2013,07,22,12,09,22.10
2013,07,22,12,10,22.10
2013,07,22,12,11,22.10
2013,07,22,12,12,22.10
2013,07,22,12,13,22.10
2013,07,22,12,14,22.10
2013,07,22,12,15,22.10
2013,07,22,12,16,22.20
2013,07,22,12,17,22.20
2013,07,22,12,18,22.20
2013,07,22,12,19,22.30
2013,07,22,12,20,22.30
2013,07,22,12,21,22.30
2013,07,22,12,22,22.30
2013,07,22,12,23,22.40
2013,07,22,12,24,22.40
2013,07,22,12,25,22.40
2013,07,22,12,26,22.30
2013,07,22,12,27,22.30
2013,07,22,12,28,22.30
2013,07,22,12,29,22.30
2013,07,22,12,30,22.30
2013,07,22,12,31,22.30
2013,07,22,12,32,22.30
2013,07,22,12,33,22.30
2013,07,22,12,34,22.30
2013,07,22,12,35,22.40
2013,07,22,12,36,22.40
2013,07,22,12,37,22.40
2013,07,22,12,38,22.50
2013,07,22,12,39,22.50
2013,07,22,12,40,22.60
2013,07,22,12,41,22.70
2013,07,22,12,42,22.70
2013,07,22,12,43,22.70
2013,07,22,12,44,22.70
2013,07,22,12,45,22.70
2013,07,22,12,46,22.70
2013,07,22,12,47,22.70
2013,07,22,12,48,22.70
2013,07,22,12,49,22.70
2013,07,22,12,50,22.60
2013,07,22,12,51,22.60
2013,07,22,12,52,22.60
2013,07,22,12,53,22.60
2013,07,22,12,54,22.70
2013,07,22,12,55,22.70
2013,07,22,12,56,22.80
2013,07,22,12,57,22.80
2013,07,22,12,58,22.90
2013,07,22,12,59,22.90
2013,07,22,13,00,22.90
2013,07,22,13,01,22.80
2013,07,22,13,02,22.80
2013,07,22,13,03,22.80
2013,07,22,13,04,22.80
2013,07,22,13,05,22.80
2013,07,22,13,06,22.70
2013,07,22,13,07,22.80
2013,07,22,13,08,22.90
2013,07,22,13,09,23.00
2013,07,22,13,10,23.00
2013,07,22,13,11,23.00
2013,07,22,13,12,23.00
2013,07,22,13,13,22.90
2013,07,22,13,14,22.90
2013,07,22,13,15,22.80
2013,07,22,13,16,22.80
2013,07,22,13,17,22.80
2013,07,22,13,18,22.80
2013,07,22,13,19,22.80
2013,07,22,13,20,22.70
2013,07,22,13,21,22.70
2013,07,22,13,22,22.80
2013,07,22,13,23,22.80
2013,07,22,13,24,22.80
2013,07,22,13,25,22.80
2013,07,22,13,26,22.80
2013,07,22,13,27,22.70
2013,07,22,13,28,22.70
2013,07,22,13,29,22.70
2013,07,22,13,30,22.70
2013,07,22,13,31,22.70
2013,07,22,13,32,22.70
2013,07,22,13,33,22.80
2013,07,22,13,34,22.90
2013,07,22,13,35,23.00
2013,07,22,13,36,23.00
2013,07,22,13,37,23.10
2013,07,22,13,38,23.20
2013,07,22,13,39,23.30
2013,07,22,13,40,23.30
2013,07,22,13,41,23.30
2013,07,22,13,42,23.30
2013,07,22,13,43,23.30
2013,07,22,13,44,23.30
2013,07,22,13,45,23.20
2013,07,22,13,46,23.10
2013,07,22,13,47,23.00
2013,07,22,13,48,22.90
2013,07,22,13,49,22.80
2013,07,22,13,50,22.80
2013,07,22,13,51,22.80
2013,07,22,13,52,22.90
2013,07,22,13,53,23.10
2013,07,22,13,54,23.20
2013,07,22,13,55,23.20
2013,07,22,13,56,23.20
2013,07,22,13,57,23.20
2013,07,22,13,58,23.20
2013,07,22,13,59,23.20
2013,07,22,14,00,23.20
2013,07,22,14,01,23.20
2013,07,22,14,02,23.30
2013,07,22,14,03,23.40
2013,07,22,14,04,23.40
2013,07,22,14,05,23.40
2013,07,22,14,06,23.40
2013,07,22,14,07,23.30
2013,07,22,14,08,23.30
2013,07,22,14,09,23.30
2013,07,22,14,10,23.20
2013,07,22,14,11,23.20
2013,07,22,14,12,23.20
2013,07,22,14,13,23.20
2013,07,22,14,14,23.30
2013,07,22,14,15,23.30
2013,07,22,14,16,23.30
2013,07,22,14,17,23.20
2013,07,22,14,18,23.20
2013,07,22,14,19,23.20
2013,07,22,14,20,23.20
2013,07,22,14,21,23.20
2013,07,22,14,22,23.10
2013,07,22,14,23,23.20
2013,07,22,14,24,23.30
2013,07,22,14,25,23.40
2013,07,22,14,26,23.60
2013,07,22,14,27,23.70
2013,07,22,14,28,23.70
2013,07,22,14,29,23.80
2013,07,22,14,30,23.80
2013,07,22,14,31,23.80
2013,07,22,14,32,23.70
2013,07,22,14,33,23.70
2013,07,22,14,34,23.60
2013,07,22,14,35,23.50
2013,07,22,14,36,23.40
2013,07,22,14,37,23.30
2013,07,22,14,38,23.30
2013,07,22,14,39,23.30
2013,07,22,14,40,23.50
2013,07,22,14,41,23.70
2013,07,22,14,42,23.90
2013,07,22,14,43,23.90
2013,07,22,14,44,23.90
2013,07,22,14,45,23.90
2013,07,22,14,46,23.80
2013,07,22,14,47,23.70
2013,07,22,14,48,23.60
2013,07,22,14,49,23.50
2013,07,22,14,50,23.40
2013,07,22,14,51,23.50
2013,07,22,14,52,23.50
2013,07,22,14,53,23.50
2013,07,22,14,54,23.50
2013,07,22,14,55,23.40
2013,07,22,14,56,23.50
2013,07,22,14,57,23.70
2013,07,22,14,58,23.90
2013,07,22,14,59,24.00
2013,07,22,15,00,24.20
2013,07,22,15,01,24.20
2013,07,22,15,02,24.20
2013,07,22,15,03,24.20
2013,07,22,15,04,24.30
2013,07,22,15,05,24.40
2013,07,22,15,06,24.40
2013,07,22,15,07,24.30
2013,07,22,15,08,24.30
2013,07,22,15,09,24.20
2013,07,22,15,10,24.30
2013,07,22,15,11,24.40
2013,07,22,15,12,24.60
2013,07,22,15,13,24.70
2013,07,22,15,14,24.80
2013,07,22,15,15,24.80
2013,07,22,15,16,24.80
2013,07,22,15,17,24.90
2013,07,22,15,18,25.00
2013,07,22,15,19,25.10
2013,07,22,15,20,25.20
2013,07,22,15,21,25.20
2013,07,22,15,22,25.10
2013,07,22,15,23,25.00
2013,07,22,15,24,24.80
2013,07,22,15,25,24.70
2013,07,22,15,26,24.70
2013,07,22,15,27,24.70
2013,07,22,15,28,24.80
2013,07,22,15,29,24.90
2013,07,22,15,30,25.00
2013,07,22,15,31,25.10
2013,07,22,15,32,25.10
2013,07,22,15,33,25.20
2013,07,22,15,34,25.20
2013,07,22,15,35,25.20
2013,07,22,15,36,25.20
2013,07,22,15,37,25.20
2013,07,22,15,38,25.20
2013,07,22,15,39,25.10
2013,07,22,15,40,25.10
2013,07,22,15,41,25.10
2013,07,22,15,42,25.10
2013,07,22,15,43,25.10
2013,07,22,15,44,25.10
2013,07,22,15,45,25.20
2013,07,22,15,46,25.20
2013,07,22,15,47,25.10
2013,07,22,15,48,25.10
2013,07,22,15,49,25.00
2013,07,22,15,50,25.10
2013,07,22,15,51,25.00
2013,07,22,15,52,25.00
2013,07,22,15,53,25.00
2013,07,22,15,54,25.00
2013,07,22,15,55,25.10
2013,07,22,15,56,25.20
2013,07,22,15,57,25.20
2013,07,22,15,58,25.30
2013,07,22,15,59,25.30
2013,07,22,16,00,25.10
2013,07,22,16,01,25.00
2013,07,22,16,02,24.90
2013,07,22,16,03,24.80
2013,07,22,16,04,24.70
2013,07,22,16,05,24.60
2013,07,22,16,06,24.50
2013,07,22,16,07,24.50
2013,07,22,16,08,24.50
2013,07,22,16,09,24.50
2013,07,22,16,10,24.60
2013,07,22,16,11,24.60
2013,07,22,16,12,24.70
2013,07,22,16,13,24.70
2013,07,22,16,14,24.60
2013,07,22,16,15,24.60
2013,07,22,16,16,24.60
2013,07,22,16,17,24.50
2013,07,22,16,18,24.50
2013,07,22,16,19,24.50
2013,07,22,16,20,24.50
2013,07,22,16,21,24.50
2013,07,22,16,22,24.50
2013,07,22,16,23,24.40
2013,07,22,16,24,24.40
2013,07,22,16,25,24.40
2013,07,22,16,26,24.60
2013,07,22,16,27,24.80
2013,07,22,16,28,25.00
2013,07,22,16,29,25.10
2013,07,22,16,30,25.10
2013,07,22,16,31,25.10
2013,07,22,16,32,25.10
2013,07,22,16,33,25.10
2013,07,22,16,34,25.00
2013,07,22,16,35,24.90
2013,07,22,16,36,24.90
2013,07,22,16,37,24.90
2013,07,22,16,38,24.80
2013,07,22,16,39,24.80
2013,07,22,16,40,24.80
2013,07,22,16,41,24.90
2013,07,22,16,42,24.90
2013,07,22,16,43,24.90
2013,07,22,16,44,24.80
2013,07,22,16,45,24.80
2013,07,22,16,46,24.70
2013,07,22,16,47,24.70
2013,07,22,16,48,24.70
2013,07,22,16,49,24.80
2013,07,22,16,50,24.80
2013,07,22,16,51,24.70
2013,07,22,16,52,24.70
2013,07,22,16,53,24.60
2013,07,22,16,54,24.60
2013,07,22,16,55,24.70
2013,07,22,16,56,24.80
2013,07,22,16,57,24.90
2013,07,22,16,58,25.00
2013,07,22,16,59,25.10
2013,07,22,17,00,25.10
2013,07,22,17,01,25.20
2013,07,22,17,02,25.30
2013,07,22,17,03,25.40
2013,07,22,17,04,25.50
2013,07,22,17,05,25.60
2013,07,22,17,06,25.70
2013,07,22,17,07,25.70
2013,07,22,17,08,25.80
2013,07,22,17,09,25.90
2013,07,22,17,10,25.90
2013,07,22,17,11,26.00
2013,07,22,17,12,26.00
2013,07,22,17,13,26.00
2013,07,22,17,14,26.00
2013,07,22,17,15,26.10
2013,07,22,17,16,26.00
2013,07,22,17,17,26.00
2013,07,22,17,18,25.90
2013,07,22,17,19,25.80